Voltar ao catálogo

COSMOS 1880

AtivoMilitarPO
NORAD 18339·PAYLOAD·🇷🇺 Russia

Lançado Sep 7, 1987 de Plesetsk Cosmodrome

Loading…

Próximas Passagens (próximas 24 horas)

TLE

AtualizadoSource: Space-Track

Época: Sep 14, 2026, 15:04 UTC

1 18339U 87074F   26257.62797117  .00000019  00000-0  47528-4 0  9992
2 18339  82.5629 205.2448 0009058 338.6288 195.2098 12.65538282802267

Acompanhe COSMOS 1880 em tempo real com AllMySat

Download on the App Store